[[[{"header":{"parameterUnit":"kt","parameterCategory":2,"dx":1,"dy":1,"la1":30.253999710083008,"la2":30.299108505249023,"lo1":-89.0895004272461,"lo2":-89.04439544677734,"nx":28,"ny":28,"refTime":"2022-10-30T21:00:00:Z","depth":0,"parameterNumber":1,"parameterNumberName":"U-component_of_WINDS"},"data":[6.0527,6.0714,6.0765,6.1002,6.1089,6.126,6.1337,6.1444,6.1541,6.1752,6.1883,6.1955,6.2073,6.2243,6.2387,6.2416,6.2473,6.2502,6.2531,6.2355,6.2334,6.2314,6.2271,6.2515,6.2515,6.2705,6.2706,6.2708,6.0394,6.0481,6.0622,6.0793,6.0914,6.0917,6.1054,6.1154,6.1308,6.143,6.1561,6.1752,6.1909,6.202,6.218,6.227,6.228,6.2309,6.2302,6.2321,6.2135,6.209,6.2298,6.2298,6.2298,6.2298,6.2298,6.2298,6.0166,6.0276,6.0408,6.0562,6.0662,6.0776,6.0891,6.0975,6.1114,6.1286,6.1321,6.1496,6.1629,6.1847,6.1933,6.2072,6.2048,6.2097,6.2108,6.2119,6.2123,6.1839,6.2102,6.2101,6.2101,6.2101,6.21,0,6.0013,6.0049,6.0187,6.034,6.0455,6.0579,6.0702,6.0774,6.0867,6.0978,6.1143,6.1246,6.1452,6.1613,6.1775,6.1856,6.1869,6.1877,6.191,6.1894,6.1859,6.1878,6.1571,6.1869,6.1867,6.1865,6.1865,6.1864,5.9785,5.9907,6.0071,6.0161,6.0241,6.0386,6.0482,6.0555,6.0654,6.0816,6.0911,6.1074,6.1207,6.1464,6.1562,6.1716,6.1724,6.1831,6.1747,6.1727,6.1724,6.1715,6.1727,6.1845,6.1847,6.1849,6.1851,0,5.9651,5.9733,5.994,6.009,6.0132,6.0257,6.0386,6.05,6.0569,6.0736,6.0779,6.0888,6.1049,6.1131,6.1331,6.1369,6.1578,6.1583,6.1532,6.1537,6.164,6.1629,6.1965,6.2013,6.1763,6.1766,6.1768,0,5.9487,5.9646,5.9759,5.9875,6.0054,6.0122,6.0297,6.0374,6.0488,6.062,6.0648,6.0771,6.0856,6.0991,6.1047,6.1232,6.1271,6.131,6.1322,6.1306,6.1301,6.1358,6.1345,6.1347,6.1345,6.1344,6.1342,0,5.9267,5.9514,5.9703,5.9772,5.9948,6.0035,6.0112,6.024,6.0335,6.047,6.0532,6.0686,6.077,6.0889,6.0958,6.0897,6.1187,6.1118,6.1227,6.1225,6.1284,6.1279,6.1559,6.134,6.134,6.1339,6.1338,0,5.9146,5.9281,5.9542,5.9688,5.975,5.9875,6.003,6.0155,6.0288,6.033,6.0438,6.0466,6.0635,6.056,6.0795,6.0696,6.0777,6.083,6.084,6.0857,6.0771,6.0916,6.1176,6.1205,6.0877,6.0873,6.087,0,5.8871,5.9156,5.9215,5.9463,5.9605,5.9626,5.9766,5.9882,5.9951,6.0082,6.0158,6.0307,6.0269,6.0327,6.0432,6.0516,6.0645,6.0502,6.069,6.0696,6.0652,6.0893,6.0909,6.111,6.0822,6.0827,6.0831,0,5.8667,5.8878,5.8918,5.8999,5.9163,5.9283,5.9444,5.9606,5.969,5.9818,5.9955,6.0168,6.0147,6.0242,6.0281,6.0387,6.056,6.035,6.0354,6.0384,6.0805,6.082,6.0854,6.0563,6.0569,6.0573,6.0793,0,5.8464,5.8617,5.8729,5.8907,5.9012,5.9171,5.9254,5.9354,5.938,5.9447,5.965,5.9767,5.9932,5.9992,6.0018,6.0234,6.021,6.0187,6.0118,6.0276,6.035,6.0381,6.0001,5.9999,5.9998,5.9997,0,0,5.8179,5.8399,5.8458,5.8616,5.8708,5.8726,5.8888,5.898,5.9165,5.9228,5.9191,5.9507,5.9603,5.9841,5.9897,5.9964,6.0011,5.9952,6.02,6.0223,6.0244,6.0322,6.0352,5.9995,5.9994,5.9994,5.9993,0,5.8121,5.8218,5.8377,5.8475,5.8621,5.8684,5.8722,5.887,5.8921,5.9119,5.9131,5.9263,5.9514,5.9614,5.9697,5.9926,5.9927,5.9971,6.0065,6.0185,6.0209,6.023,6.0311,6.0339,5.999,5.999,5.999,0,5.7934,5.8042,5.8128,5.8337,5.8433,5.8579,5.8528,5.8685,5.8794,5.8805,5.9002,5.9078,5.9219,5.9432,5.9531,5.95,5.9846,5.9752,5.9762,5.9774,5.9895,5.9924,5.9949,5.9611,5.9609,5.9608,0,0,5.7872,5.8014,5.8152,5.8331,5.839,5.8486,5.8572,5.8606,5.8731,5.8781,5.8878,5.9001,5.9147,5.9242,5.9383,5.9606,5.9641,5.9702,5.972,5.9734,5.9753,5.9878,5.9906,5.9601,5.9601,5.9601,0,0,5.7843,5.8009,5.8012,5.8229,5.8348,5.8495,5.8602,5.8609,5.8744,5.8735,5.8801,5.8836,5.9037,5.9111,5.9017,5.936,5.9291,5.9315,5.9304,5.9328,5.9345,5.9323,5.898,0,0,0,0,0,5.7825,5.7988,5.7989,5.8038,5.8302,5.8495,5.8529,5.8586,5.8535,5.8618,5.8701,5.8696,5.9074,5.8992,5.904,5.9144,5.952,5.9534,5.9548,5.9586,5.961,5.963,0,0,0,0,0,0,5.7844,5.7904,5.7985,5.8138,5.8198,5.8489,5.8416,5.8436,5.8528,5.8524,5.868,5.8701,5.8754,5.8971,5.9014,5.9111,5.8966,5.9526,5.9538,5.9549,5.9595,5.9614,5.9631,0,0,0,0,0,5.786,5.7908,5.8316,5.8136,5.8188,5.8303,5.8411,5.8427,5.8499,5.8626,5.8646,5.8533,5.8755,5.8795,5.8997,5.909,5.8937,5.8953,5.9534,5.9543,5.9552,5.9604,0,0,0,0,0,0,5.7872,5.7925,5.8328,5.8346,5.8078,5.8288,5.8322,5.8418,5.8596,5.8618,5.8481,5.8476,5.8758,5.8788,5.8818,5.908,5.8913,5.8929,5.8939,5.9541,5.9549,5.9555,0,0,0,0,0,0,5.7899,5.794,5.8337,5.8261,5.8271,5.8273,5.8304,5.8485,5.8598,5.8441,5.8442,5.8476,5.8713,5.8784,5.8808,5.9087,5.8896,5.8911,5.8921,5.8928,5.9547,5.9553,0,0,0,0,0,0,5.7917,5.7952,5.8257,5.8264,5.8272,5.8479,5.8434,5.8701,5.8531,5.8433,5.8517,5.8511,5.8709,5.8734,5.8801,5.907,5.9083,5.8896,5.8906,5.8914,5.8918,0,0,0,0,0,0,0,5.7932,5.7685,5.8221,5.8267,5.8274,5.8513,5.8518,5.8523,5.853,5.8524,5.8519,5.8514,5.8809,5.8826,5.8843,5.9056,0,0,5.8894,5.8902,0,0,0,0,0,0,0,0,5.7672,5.7682,5.8222,5.8225,5.8229,5.8514,5.8518,5.8522,5.8529,5.8524,5.852,5.8516,5.8814,5.8827,5.8841,0,0,0,0,0,0,0,0,0,0,0,0,0,0,0,5.8222,5.8225,0,5.8514,5.8517,5.8521,5.8528,5.8524,5.8521,5.8517,5.8817,5.8828,5.884,0,0,0,0,0,0,0,0,0,0,0,0,0,0,0,0,0,0,0,0,0,0,0,0,0,0,0,0,0,0,0,0,0,0,0,0,0,0,0,0,0,0,0,0,0,0,0,0,0,0,0,0,0,0,0,0,0,0,0,0,0,0,0,0,0,0,0,0,0]}],[{"header":{"parameterUnit":"kt","parameterCategory":2,"dx":1,"dy":1,"la1":30.253999710083008,"la2":30.299108505249023,"lo1":-89.0895004272461,"lo2":-89.04439544677734,"nx":28,"ny":28,"refTime":"2022-10-30T21:00:00:Z","depth":0,"parameterNumber":2,"parameterNumberName":"V-component_of_WINDS"},"data":[-0.5139,-0.5146,-0.515,-0.516,-0.5165,-0.5173,-0.5177,-0.5182,-0.5187,-0.5197,-0.5203,-0.5208,-0.5215,-0.5223,-0.5231,-0.5232,-0.5235,-0.5235,-0.5238,-0.5234,-0.5234,-0.5234,-0.5232,-0.5236,-0.5236,-0.5241,-0.5241,-0.5241,-0.5136,-0.514,-0.5147,-0.5156,-0.5161,-0.5163,-0.5171,-0.5175,-0.5182,-0.5189,-0.5195,-0.5204,-0.5212,-0.5219,-0.5227,-0.5231,-0.5232,-0.5233,-0.5232,-0.5234,-0.523,-0.5228,-0.5231,-0.5231,-0.5231,-0.5231,-0.5231,-0.5231,-0.5131,-0.5135,-0.5143,-0.515,-0.5155,-0.5161,-0.5166,-0.5171,-0.5178,-0.5187,-0.519,-0.5198,-0.5205,-0.5217,-0.5222,-0.5228,-0.5228,-0.523,-0.523,-0.5231,-0.5231,-0.5223,-0.5229,-0.5229,-0.5229,-0.5229,-0.5229,0,-0.5129,-0.5132,-0.5138,-0.5146,-0.5151,-0.5157,-0.5164,-0.5167,-0.5174,-0.5179,-0.5187,-0.5192,-0.5202,-0.521,-0.5218,-0.5223,-0.5226,-0.5227,-0.5228,-0.5227,-0.5224,-0.5226,-0.522,-0.5227,-0.5227,-0.5227,-0.5227,-0.5227,-0.5125,-0.513,-0.5139,-0.5143,-0.5148,-0.5154,-0.5159,-0.5165,-0.517,-0.5178,-0.5182,-0.519,-0.5197,-0.5208,-0.5215,-0.5223,-0.5224,-0.5226,-0.5225,-0.5224,-0.5224,-0.5224,-0.5225,-0.5226,-0.5226,-0.5226,-0.5227,0,-0.5122,-0.5128,-0.5137,-0.5146,-0.5148,-0.5153,-0.5161,-0.5165,-0.517,-0.5177,-0.5179,-0.5187,-0.5195,-0.5201,-0.5211,-0.5214,-0.5222,-0.5223,-0.5219,-0.522,-0.5223,-0.5222,-0.523,-0.5232,-0.5228,-0.5228,-0.5228,0,-0.5121,-0.5127,-0.5136,-0.514,-0.5147,-0.5153,-0.516,-0.5165,-0.5171,-0.5177,-0.5181,-0.5186,-0.5194,-0.52,-0.5204,-0.5212,-0.5214,-0.5216,-0.5218,-0.5216,-0.5216,-0.5219,-0.5219,-0.522,-0.522,-0.522,-0.522,0,-0.5117,-0.5128,-0.5136,-0.5139,-0.515,-0.5153,-0.5158,-0.5165,-0.517,-0.5177,-0.518,-0.5187,-0.5192,-0.5197,-0.5203,-0.5202,-0.5212,-0.5212,-0.5215,-0.5215,-0.5217,-0.5217,-0.5223,-0.522,-0.522,-0.522,-0.522,0,-0.5117,-0.5124,-0.5134,-0.5142,-0.5145,-0.515,-0.5158,-0.5164,-0.5171,-0.5174,-0.518,-0.5184,-0.5191,-0.519,-0.52,-0.5197,-0.5201,-0.5204,-0.5205,-0.5206,-0.5205,-0.5207,-0.5212,-0.5213,-0.5207,-0.5207,-0.5207,0,-0.511,-0.5122,-0.5127,-0.5136,-0.5143,-0.5147,-0.5153,-0.5159,-0.5164,-0.517,-0.5175,-0.5182,-0.5183,-0.5186,-0.519,-0.5196,-0.5199,-0.5195,-0.5204,-0.5204,-0.5202,-0.5206,-0.5205,-0.521,-0.5205,-0.5205,-0.5205,0,-0.5105,-0.5118,-0.5119,-0.5124,-0.5133,-0.5139,-0.5145,-0.5153,-0.5157,-0.5164,-0.517,-0.5179,-0.518,-0.5185,-0.5189,-0.5193,-0.5197,-0.5194,-0.5194,-0.5194,-0.5205,-0.5204,-0.5205,-0.5199,-0.5199,-0.5199,-0.5204,0,-0.5104,-0.5111,-0.5115,-0.5125,-0.513,-0.5136,-0.5143,-0.5147,-0.515,-0.5155,-0.5163,-0.517,-0.5179,-0.5181,-0.5184,-0.5191,-0.5191,-0.5192,-0.5192,-0.5195,-0.5197,-0.5197,-0.5189,-0.5189,-0.5189,-0.5189,0,0,-0.5096,-0.5106,-0.5112,-0.5118,-0.5123,-0.5128,-0.5134,-0.5139,-0.5149,-0.5152,-0.5152,-0.5167,-0.5173,-0.5182,-0.5183,-0.5187,-0.5189,-0.5187,-0.5193,-0.5194,-0.5194,-0.5196,-0.5197,-0.5189,-0.5189,-0.5189,-0.5189,0,-0.5097,-0.5103,-0.5109,-0.5115,-0.5123,-0.5128,-0.5129,-0.5138,-0.5142,-0.515,-0.5154,-0.516,-0.5171,-0.5177,-0.5181,-0.5186,-0.5189,-0.5188,-0.5189,-0.5193,-0.5194,-0.5194,-0.5196,-0.5197,-0.5189,-0.5189,-0.5189,0,-0.5094,-0.5101,-0.5105,-0.5115,-0.5121,-0.5127,-0.5129,-0.5136,-0.5141,-0.5145,-0.5153,-0.5158,-0.5166,-0.5174,-0.5178,-0.5178,-0.5189,-0.5187,-0.5187,-0.5187,-0.5192,-0.5192,-0.5193,-0.5187,-0.5187,-0.5187,0,0,-0.5094,-0.5101,-0.511,-0.5116,-0.5119,-0.5127,-0.5131,-0.5134,-0.5142,-0.5144,-0.5151,-0.5157,-0.5164,-0.5168,-0.5175,-0.5183,-0.5185,-0.5186,-0.5186,-0.5186,-0.5187,-0.5191,-0.5192,-0.5186,-0.5186,-0.5186,0,0,-0.5094,-0.5105,-0.5107,-0.5116,-0.5122,-0.5132,-0.5135,-0.5138,-0.5145,-0.5145,-0.5151,-0.5153,-0.5161,-0.5165,-0.5163,-0.5175,-0.5175,-0.5176,-0.5172,-0.5172,-0.5172,-0.5171,-0.5165,0,0,0,0,0,-0.5099,-0.5104,-0.5106,-0.5108,-0.5122,-0.5131,-0.5132,-0.5138,-0.5138,-0.514,-0.5146,-0.5148,-0.5165,-0.5163,-0.5165,-0.5168,-0.5185,-0.5185,-0.5185,-0.5182,-0.5182,-0.5183,0,0,0,0,0,0,-0.51,-0.5103,-0.5106,-0.5115,-0.5118,-0.5131,-0.5131,-0.5133,-0.5138,-0.5138,-0.5147,-0.5149,-0.5154,-0.5162,-0.5164,-0.5167,-0.5165,-0.5185,-0.5185,-0.5185,-0.5182,-0.5182,-0.5183,0,0,0,0,0,-0.5101,-0.5103,-0.5124,-0.5115,-0.5118,-0.5126,-0.5131,-0.5133,-0.5136,-0.5145,-0.5146,-0.514,-0.5153,-0.5155,-0.5164,-0.5166,-0.5163,-0.5164,-0.5185,-0.5185,-0.5185,-0.5182,0,0,0,0,0,0,-0.5101,-0.5104,-0.5124,-0.5126,-0.5114,-0.5126,-0.5128,-0.5132,-0.5143,-0.5145,-0.5138,-0.5138,-0.5153,-0.5155,-0.5157,-0.5165,-0.5162,-0.5163,-0.5164,-0.5185,-0.5185,-0.5185,0,0,0,0,0,0,-0.5103,-0.5105,-0.5125,-0.5123,-0.5124,-0.5125,-0.5127,-0.5135,-0.5143,-0.5135,-0.5136,-0.5138,-0.5151,-0.5155,-0.5156,-0.5168,-0.5162,-0.5162,-0.5163,-0.5163,-0.5185,-0.5185,0,0,0,0,0,0,-0.5104,-0.5106,-0.5123,-0.5123,-0.5124,-0.5136,-0.5132,-0.5146,-0.5141,-0.5135,-0.5141,-0.5141,-0.5151,-0.5152,-0.5155,-0.5167,-0.5167,-0.5162,-0.5162,-0.5162,-0.5163,0,0,0,0,0,0,0,-0.5105,-0.5092,-0.5118,-0.5124,-0.5124,-0.5135,-0.5135,-0.5136,-0.5141,-0.5141,-0.5141,-0.5141,-0.5158,-0.5158,-0.5159,-0.5166,0,0,-0.5162,-0.5162,0,0,0,0,0,0,0,0,-0.5091,-0.5092,-0.5118,-0.5119,-0.5119,-0.5135,-0.5135,-0.5136,-0.5141,-0.5141,-0.5141,-0.5141,-0.5158,-0.5158,-0.5159,0,0,0,0,0,0,0,0,0,0,0,0,0,0,0,-0.5118,-0.5119,0,-0.5135,-0.5135,-0.5136,-0.5141,-0.5141,-0.5141,-0.5141,-0.5158,-0.5159,-0.5159,0,0,0,0,0,0,0,0,0,0,0,0,0,0,0,0,0,0,0,0,0,0,0,0,0,0,0,0,0,0,0,0,0,0,0,0,0,0,0,0,0,0,0,0,0,0,0,0,0,0,0,0,0,0,0,0,0,0,0,0,0,0,0,0,0,0,0,0,0]}]]]